Theta_e
297 296 296 299 298 295 291 291 291 292 295 293 289 293 296 293 285 285 293 295 292 294 296 297 298 299 298 299 300 301 302 301 301 300 299 298 299 299 299 299 299 299 299 299 300 300 300 301 300 300 301 301 301 301 301 302 303 303 304 303 303 303 303 302 302 303 303 304 303 303 303 303 303 303 303 304 304 305 305 305 306 305 304 303 302 301 301
294 295 299 300 297 296 296 293 295 296 296 297 296 297 297 296 292 295 295 294 293 295 296 298 298 300 300 300 302 302 300 300 300 299 298 297 298 298 298 298 298 299 299 299 299 299 298 299 299 300 300 300 301 300 300 301 302 303 303 302 302 301 301 301 302 302 303 303 302 302 302 302 302 302 302 303 303 302 303 303 304 304 304 304 303 301 300
292 296 298 298 297 295 293 295 297 298 298 298 298 296 295 295 294 294 294 292 291 296 298 298 299 300 301 301 300 300 300 300 299 298 297 297 297 297 297 297 298 298 299 298 299 299 299 299 299 300 300 300 300 300 300 301 301 302 302 301 301 300 301 301 301 301 301 301 301 301 301 301 301 301 302 302 302 302 302 302 302 303 302 302 302 301 300
287 296 296 295 295 293 292 291 292 294 295 293 294 292 295 293 291 292 291 289 288 294 297 298 298 298 298 298 299 299 299 298 297 297 296 296 296 297 297 297 297 298 298 298 299 299 299 299 300 299 299 300 299 299 299 300 301 301 301 300 300 300 300 300 301 300 300 300 300 300 300 300 300 300 300 301 301 302 301 301 301 302 300 300 300 300 300
284 294 296 294 292 288 285 286 290 292 296 295 294 295 296 296 295 290 288 289 294 295 297 295 295 297 297 297 298 297 297 297 297 297 296 296 296 296 297 297 298 297 297 298 298 299 299 299 299 300 300 299 299 299 299 300 301 300 299 299 299 299 299 299 299 300 300 299 299 299 299 299 299 299 299 299 299 300 300 301 301 300 300 299 299 300 299
283 292 294 293 285 280 283 291 296 296 293 292 289 288 290 292 294 291 295 294 295 295 295 294 294 295 296 297 297 298 297 297 297 297 297 297 297 296 296 297 297 297 298 298 298 298 298 299 299 300 301 300 299 300 300 299 299 299 298 298 298 298 298 298 299 299 299 299 298 298 298 298 297 298 298 298 298 299 299 300 299 299 299 298 298 298 299
284 288 287 284 279 281 291 296 298 297 295 294 291 291 292 292 294 294 293 294 294 295 296 296 296 297 297 298 297 297 298 298 297 297 297 297 296 295 296 296 297 297 297 297 297 297 297 298 298 299 299 299 299 299 299 298 298 298 297 297 297 297 297 298 298 298 298 298 298 297 296 296 296 296 296 297 297 298 298 299 298 298 298 297 297 297 297
285 284 284 280 280 290 295 295 296 298 297 295 293 290 292 293 293 294 292 293 294 295 296 296 297 296 296 297 297 298 299 299 298 297 296 296 296 295 296 295 295 297 297 297 296 297 298 298 298 298 298 298 298 298 298 298 297 297 297 296 296 296 296 297 297 297 297 296 297 296 295 295 294 294 295 295 296 297 298 298 299 298 297 297 296 296 297
282 283 282 283 289 291 292 290 292 294 290 294 291 285 288 293 294 293 292 294 294 295 295 295 295 296 295 293 294 298 299 299 299 298 297 297 296 296 296 297 297 298 298 298 298 298 297 297 297 297 298 298 297 297 297 297 296 296 296 295 295 296 296 296 296 296 296 295 296 295 295 294 293 293 294 294 295 297 296 296 296 296 296 297 298 296 296
285 283 282 283 283 281 286 293 298 301 301 298 296 291 287 295 295 295 294 293 293 293 294 294 294 295 292 288 289 295 298 298 297 297 297 297 297 297 297 297 297 297 297 297 298 297 297 297 297 297 297 297 296 296 296 296 295 295 295 295 295 295 295 295 296 295 295 294 294 295 294 294 293 293 294 294 295 296 295 295 295 296 296 296 297 297 296
285 283 282 281 280 282 288 292 298 300 299 298 297 289 284 292 294 295 294 293 293 293 293 293 294 291 287 287 289 294 296 297 297 296 296 297 297 296 296 295 295 296 297 297 298 297 296 296 297 297 297 297 296 295 295 295 295 294 294 294 294 294 295 295 295 295 295 295 294 294 294 294 294 293 293 294 294 295 295 295 295 295 297 295 295 295 296
284 284 282 281 284 282 290 295 297 298 300 300 293 282 283 291 294 295 294 293 293 293 294 294 292 290 286 287 290 295 296 296 297 296 295 295 295 295 296 296 296 297 298 297 296 295 295 295 296 297 297 298 297 296 295 294 294 293 294 294 294 294 295 296 295 295 295 295 295 294 294 293 294 293 293 293 293 293 293 293 293 293 294 294 293 294 295
283 284 282 285 286 291 296 297 299 300 302 296 283 281 284 293 295 295 295 294 294 294 293 293 289 291 292 293 294 296 297 297 297 297 297 295 295 295 295 296 297 295 296 296 295 295 296 296 297 297 297 296 296 295 294 294 294 294 294 295 295 295 294 295 295 295 294 295 295 294 294 294 294 294 293 292 292 292 292 292 291 292 292 293 293 292 293
283 283 283 283 286 292 299 299 302 302 296 283 283 289 295 295 294 295 295 294 295 294 293 293 292 293 295 296 296 296 296 296 296 296 295 294 294 294 296 296 296 295 295 295 295 295 296 297 297 296 296 296 295 294 293 293 294 294 295 294 294 294 293 294 295 295 294 295 297 297 295 295 293 293 293 293 292 291 291 291 291 290 290 292 291 291 292
285 284 281 281 281 289 300 300 298 298 287 285 292 294 295 296 295 295 295 295 294 295 294 294 294 294 295 296 296 296 296 295 294 294 294 293 293 293 294 294 296 296 295 295 295 295 296 296 296 296 295 295 294 294 294 294 295 295 295 295 295 295 294 294 295 295 294 295 296 297 295 295 293 292 292 292 292 292 291 290 290 290 290 290 290 290 290
283 281 280 281 286 294 301 297 287 294 293 295 295 295 292 295 295 294 294 294 295 295 294 293 294 294 295 295 296 296 295 294 293 293 294 294 295 295 296 295 295 296 295 295 295 294 295 295 296 295 295 295 295 294 294 295 295 295 295 295 294 294 294 294 293 294 295 296 295 294 294 294 293 292 292 292 291 291 290 290 289 289 289 289 289 289 289
285 283 285 291 295 296 298 298 296 296 297 297 296 296 295 294 295 296 294 294 296 296 295 294 294 294 295 294 295 295 294 293 293 292 293 294 294 294 293 294 295 295 294 293 293 294 294 295 295 295 295 295 294 293 296 295 295 295 294 294 294 293 293 293 293 294 294 294 294 293 293 293 293 293 292 291 290 290 290 289 289 288 288 289 288 288 288
294 295 294 296 296 296 296 298 299 297 297 298 297 296 295 295 296 296 295 296 296 296 296 294 294 294 294 294 295 295 294 293 294 295 294 294 293 294 294 294 294 294 294 293 293 292 293 294 295 295 296 295 294 295 296 296 295 295 295 294 294 293 293 293 294 294 293 294 294 294 294 293 293 292 292 291 290 289 288 288 288 288 288 288 288 288 287
290 285 294 294 294 296 297 296 298 298 298 298 298 297 297 297 298 298 297 296 295 295 296 295 294 294 295 295 295 295 293 293 293 294 293 293 293 293 293 293 294 293 293 293 293 293 293 293 294 295 295 296 296 295 295 296 296 296 295 294 294 293 292 293 293 292 293 292 293 293 293 293 294 294 291 290 289 288 287 287 287 288 288 288 288 288 287
285 287 294 296 298 297 297 297 296 296 297 298 298 298 298 298 298 297 296 296 295 296 294 294 294 294 295 295 294 293 293 293 293 293 292 292 293 293 293 293 293 292 292 292 293 293 294 294 294 295 296 295 297 296 296 296 295 295 295 294 293 292 292 292 293 292 292 291 293 293 292 292 291 291 292 291 288 287 286 287 287 287 287 287 287 287 287
292 295 296 297 297 297 297 297 296 297 297 298 298 299 298 298 297 296 296 297 296 295 295 295 295 295 295 294 293 293 293 293 292 292 292 293 293 293 293 293 293 292 292 293 293 294 294 294 295 295 295 295 297 295 295 295 295 295 293 293 293 293 293 292 293 292 293 291 292 293 292 291 290 290 289 291 289 288 287 286 287 288 287 287 287 286 286
287 288 291 295 289 288 293 295 297 297 298 298 298 298 298 297 296 296 295 295 296 296 297 296 296 294 293 292 293 293 292 292 292 292 293 293 292 293 293 294 294 294 294 293 293 293 293 294 295 295 295 295 296 296 296 296 295 294 293 293 292 292 292 292 293 292 293 292 293 292 292 290 290 290 288 290 290 288 287 290 289 288 288 286 287 286 287
286 292 295 294 295 295 295 296 298 299 299 298 297 296 296 296 297 296 295 294 295 296 297 297 295 293 293 292 293 292 291 292 292 293 293 293 292 292 293 293 293 293 293 294 293 293 294 294 295 295 295 295 295 295 296 296 296 294 293 293 292 292 293 292 292 293 292 291 292 292 292 290 291 289 289 289 289 290 290 290 289 289 288 289 289 289 288
294 297 296 297 295 293 295 297 298 298 299 298 296 297 297 296 296 296 296 296 295 295 295 295 294 293 292 292 292 291 292 292 293 293 293 293 292 293 293 293 293 293 293 293 293 293 294 294 294 294 295 295 294 295 295 295 295 294 293 292 291 291 292 291 292 292 291 291 291 292 290 291 290 290 289 288 288 289 289 289 289 289 288 288 288 289 289
294 297 298 298 296 296 297 297 298 299 299 299 297 296 296 296 296 296 296 296 296 295 294 293 293 293 292 291 292 292 292 292 292 292 293 293 292 293 293 292 293 293 293 293 294 294 295 294 294 294 294 295 295 295 295 296 296 294 294 293 292 291 290 291 292 293 291 290 291 291 291 291 291 290 288 287 286 287 289 288 285 283 285 287 288 289 290
298 298 299 299 298 297 298 298 297 298 298 299 298 298 299 299 298 297 295 295 294 295 294 292 291 292 293 292 292 291 292 292 292 293 293 292 292 292 292 292 293 294 294 294 294 294 294 294 294 294 294 295 295 296 296 296 296 294 294 293 292 290 289 289 290 292 293 292 291 291 290 291 289 290 288 290 287 286 286 285 287 289 288 288 289 290 290
299 300 299 297 295 295 296 295 294 298 298 299 299 299 299 298 298 297 297 296 294 293 292 292 292 292 292 292 292 292 292 292 292 292 292 292 292 292 292 293 293 293 293 293 293 293 293 293 293 293 293 294 293 294 295 296 295 294 293 294 293 291 289 289 291 292 292 290 290 290 291 291 289 289 290 288 288 288 287 287 287 285 286 287 288 290 289
298 299 299 294 293 294 295 296 297 298 299 299 298 298 297 297 296 296 294 294 293 292 292 292 292 292 291 292 292 291 291 291 291 291 292 292 292 293 293 293 293 293 293 292 293 292 293 293 292 291 292 293 293 293 293 294 295 294 293 293 293 291 291 290 291 291 292 291 290 290 290 290 290 288 288 288 288 287 287 287 287 286 285 287 287 290 290
297 298 298 298 297 297 298 298 298 297 297 298 298 297 297 296 295 294 292 292 292 292 292 292 292 292 292 291 292 291 291 290 291 290 291 292 293 293 293 293 293 293 293 293 293 292 292 292 292 291 292 292 293 293 293 293 292 292 293 292 291 291 290 289 291 291 291 291 290 289 288 288 290 289 289 289 287 288 287 286 285 285 286 285 286 287 287
298 298 298 298 298 298 297 295 295 296 297 298 297 296 296 295 294 293 292 292 292 292 292 292 292 291 292 291 291 291 290 291 292 292 292 293 293 293 293 293 293 293 292 292 293 292 293 292 292 291 293 293 293 294 293 292 292 293 294 293 291 290 291 291 291 292 291 290 289 288 287 288 289 288 288 287 287 287 284 285 285 284 285 285 287 284 284
298 299 299 298 298 297 296 295 296 296 297 298 297 295 295 294 293 292 292 292 292 292 292 292 292 291 291 291 292 292 293 292 292 292 292 292 292 292 292 293 292 290 290 291 292 293 292 292 292 292 293 293 294 293 293 292 292 292 292 293 292 291 290 289 291 291 291 289 288 289 289 288 288 286 286 285 286 286 285 284 284 284 284 285 284 284 285
297 298 298 297 297 297 296 297 296 296 296 296 296 294 294 293 292 292 292 292 292 293 292 292 292 291 291 292 292 293 293 293 292 292 292 292 292 291 292 293 292 290 292 292 292 292 292 292 292 293 294 294 294 294 294 293 292 292 289 290 291 289 288 288 289 289 289 288 289 288 287 287 288 287 286 285 286 286 285 284 285 285 284 284 285 286 286
295 294 294 295 295 296 295 296 295 295 295 294 294 295 295 295 295 294 293 293 293 293 293 293 293 292 292 292 293 293 293 292 291 290 290 288 288 290 291 292 293 293 293 292 292 292 293 293 293 294 294 295 294 294 295 293 291 292 290 289 291 291 290 289 290 290 289 287 287 288 288 287 287 288 288 288 287 286 285 284 284 285 286 284 284 285 286
295 294 295 296 296 295 294 295 295 295 295 295 295 295 294 294 294 294 293 293 294 293 293 293 294 293 293 293 293 292 291 290 287 287 286 286 286 289 292 291 292 293 293 293 292 292 291 294 293 294 294 295 294 294 293 292 290 290 292 290 291 290 290 289 289 290 288 288 288 287 286 285 286 287 286 286 287 285 285 285 286 285 285 286 285 285 288
298 297 298 298 298 297 297 296 296 295 295 294 294 293 293 293 294 293 293 293 293 293 294 294 294 294 292 291 290 289 289 288 287 286 286 287 286 287 292 292 293 292 293 292 292 292 293 294 294 294 294 294 295 294 293 292 290 289 290 290 290 290 290 289 290 290 288 289 288 287 284 285 287 286 286 287 287 286 285 286 285 285 285 284 286 285 286
299 298 298 298 299 299 298 297 296 296 295 293 293 293 293 293 293 293 292 293 293 295 295 294 293 291 290 288 288 287 287 286 285 285 285 285 286 286 290 292 292 291 291 291 293 293 294 293 290 290 291 292 293 292 292 291 291 289 290 290 289 290 289 288 289 290 288 289 287 286 285 286 287 286 287 287 287 287 286 286 285 286 284 284 284 285 285
298 298 297 297 298 298 298 297 296 296 294 293 293 293 293 293 293 293 294 294 294 294 294 294 293 290 288 288 288 287 286 286 286 285 285 283 283 286 289 289 291 290 290 290 292 294 292 291 288 288 289 290 291 291 289 288 290 290 289 289 290 289 289 288 289 288 288 288 287 287 286 286 286 286 286 286 286 286 286 286 286 285 285 285 284 284 286
298 298 297 297 297 297 296 296 296 296 295 293 293 294 293 294 294 294 295 294 294 294 294 294 293 291 289 287 286 286 285 284 284 284 283 283 285 287 288 288 288 290 291 289 292 294 292 290 286 288 291 291 292 290 289 288 289 288 288 289 289 289 289 288 288 288 288 288 288 288 286 285 285 285 285 285 286 286 286 285 286 285 287 286 286 285 285
297 298 298 298 298 297 295 295 296 295 295 293 293 293 294 295 294 295 294 294 294 294 295 294 292 291 289 289 288 287 286 284 284 284 284 285 287 287 286 289 290 291 291 293 295 294 291 289 290 292 292 292 293 291 288 285 286 287 288 289 291 290 290 288 289 289 288 287 288 286 286 285 285 285 285 285 286 286 287 286 286 286 285 286 286 285 284
296 296 296 296 295 294 294 293 293 294 294 295 294 294 294 294 295 294 294 294 294 294 295 294 292 290 290 289 289 288 288 287 286 285 286 287 289 288 288 291 292 294 294 292 294 292 289 288 291 294 293 293 293 291 288 286 285 287 289 289 289 288 287 289 289 289 287 287 288 287 286 285 285 285 285 285 286 285 285 285 285 286 285 285 285 285 285
295 294 294 294 294 294 293 293 293 294 293 295 295 295 295 295 295 293 293 294 294 295 295 294 292 291 291 291 290 290 290 288 288 288 288 288 288 288 286 288 291 293 294 293 292 290 289 289 292 291 291 292 292 289 290 287 286 288 289 289 289 287 288 288 288 288 287 287 288 286 286 285 285 286 285 285 285 286 285 285 287 285 285 285 285 285 285
294 294 294 294 294 294 294 294 294 293 294 295 294 295 295 295 294 294 293 294 294 295 295 295 292 293 293 293 292 291 291 290 289 290 290 290 289 287 286 288 292 294 292 291 290 290 290 291 291 289 290 291 290 288 288 288 289 288 289 289 287 287 288 287 288 288 287 286 286 287 286 284 285 285 286 284 284 285 285 285 285 285 284 285 285 286 286
294 294 293 293 294 293 294 294 294 293 293 294 295 295 295 294 294 294 294 293 294 294 294 294 293 292 293 293 293 292 291 291 291 291 291 291 292 292 290 291 293 295 290 291 291 291 291 292 291 289 289 290 290 288 288 288 288 288 289 290 289 288 287 288 287 288 288 287 287 286 285 284 284 284 285 285 285 285 284 284 285 285 284 285 286 285 285
295 295 294 294 294 294 294 294 294 294 293 293 295 295 295 295 295 294 293 294 294 294 294 295 294 294 293 294 293 292 291 291 291 291 291 290 292 293 294 293 293 292 288 290 291 291 292 292 290 290 288 288 288 287 288 288 289 288 289 289 288 287 286 288 287 288 287 287 287 286 285 285 284 284 286 284 284 284 285 284 285 286 285 285 285 285 285
295 295 295 295 294 294 294 294 294 293 293 294 295 295 294 294 294 295 295 294 293 293 292 294 294 294 294 294 293 293 293 294 293 292 290 289 289 290 294 292 292 290 290 290 292 292 292 292 290 288 288 288 288 287 290 289 289 287 288 288 289 287 287 287 286 287 287 287 286 285 285 285 285 284 285 285 285 284 284 284 284 284 284 284 284 284 284
295 295 295 292 295 295 294 295 295 295 294 294 294 294 294 295 294 294 294 294 294 293 294 294 294 294 295 295 294 295 295 295 295 295 295 294 292 293 294 292 292 290 290 290 291 292 291 288 288 287 287 287 287 288 288 288 287 287 288 288 288 287 287 286 286 286 285 286 286 286 285 285 285 285 285 285 284 283 285 285 284 284 284 284 284 284 285
295 295 295 295 295 295 294 295 295 295 294 294 293 293 294 295 294 294 294 294 295 295 295 295 295 295 295 296 294 291 290 291 293 296 296 296 295 293 291 290 290 289 289 290 289 289 288 286 287 287 286 286 286 289 289 289 288 287 287 287 287 287 287 287 288 288 287 286 286 286 287 286 285 285 286 286 285 284 284 284 284 284 284 284 284 285 286
295 295 295 295 295 295 295 295 294 294 294 293 293 294 294 295 295 295 295 293 295 295 294 294 295 295 295 295 295 295 293 292 287 289 293 295 294 292 292 292 291 289 289 289 289 288 287 286 286 286 287 286 287 288 290 288 288 288 287 288 288 288 287 288 287 288 286 286 286 286 285 285 286 285 285 286 285 284 284 284 284 284 284 284 285 285 286
296 295 295 295 295 295 295 294 293 293 293 294 294 294 295 295 295 295 294 294 295 295 294 294 295 295 294 294 295 295 295 294 293 288 292 295 293 292 293 290 289 288 290 290 291 287 286 287 286 286 286 286 287 288 289 288 288 287 287 287 288 287 287 287 286 287 286 286 285 284 285 286 285 285 285 285 285 285 284 284 284 285 284 283 285 285 285
296 295 295 295 295 295 295 293 292 293 294 294 294 294 295 295 293 293 292 293 294 292 293 293 292 293 293 292 293 294 295 294 294 294 295 296 295 294 291 290 290 288 289 290 291 287 286 286 286 286 286 285 287 287 288 288 289 288 287 288 287 287 286 287 286 287 287 287 287 286 285 285 284 285 285 286 285 285 285 284 284 285 286 285 284 284 284
295 294 294 294 295 295 296 295 294 294 294 294 294 294 294 294 294 293 293 294 293 292 291 292 292 293 292 293 293 293 294 295 294 293 292 294 295 292 291 291 290 289 288 290 290 288 286 285 285 285 285 286 286 288 287 288 287 288 287 287 287 286 286 286 285 286 287 285 286 286 286 285 285 286 285 285 285 286 285 284 284 284 283 283 284 284 284
296 295 294 295 295 295 296 296 296 295 294 294 293 292 293 294 293 292 293 291 294 292 292 291 290 291 294 293 293 293 292 293 292 291 290 291 293 291 291 289 290 289 291 291 290 291 287 287 286 286 286 286 286 287 287 287 288 287 287 287 287 286 286 286 285 286 285 285 286 285 286 286 286 286 286 285 284 284 285 285 284 284 284 284 284 284 284
Wind_Speed
6 6 8 8 8 3 7 14 8 7 4 8 12 3 10 10 6 8 11 14 19 14 15 15 15 15 14 13 13 12 12 12 12 12 11 9 9 8 7 6 5 4 4 3 2 4 6 6 7 7 7 7 7 7 7 6 7 8 7 7 7 6 6 6 6 6 5 5 5 6 7 8 9 10 10 10 11 11 11 11 9 9 9 9 10 12 12
4 5 8 9 6 10 16 8 8 8 1 5 9 5 1 6 7 16 18 10 13 12 13 13 13 11 12 11 12 12 12 13 12 12 10 11 10 8 7 5 4 3 3 3 3 2 4 4 6 8 8 7 7 6 6 6 7 7 7 8 8 8 9 8 7 7 8 6 6 6 7 8 9 8 8 8 9 9 10 10 11 11 11 10 11 13 13
2 8 10 12 10 8 8 12 15 13 13 16 14 15 17 22 18 18 17 15 12 4 9 12 10 8 9 12 13 13 12 12 12 12 12 11 10 9 7 5 3 3 4 4 5 8 7 6 8 7 7 7 6 6 6 6 6 7 7 8 8 8 9 8 7 6 7 8 7 7 6 6 7 8 9 7 8 8 9 10 10 11 12 13 12 11 13
1 5 7 6 6 9 12 13 13 12 9 9 3 9 3 13 13 18 17 13 7 7 9 9 9 9 12 13 12 11 10 10 13 13 11 10 9 9 7 5 3 5 4 6 6 6 7 7 7 7 7 6 6 6 6 5 6 6 6 6 8 9 9 9 9 8 6 6 8 8 7 6 6 7 7 8 8 8 9 10 10 10 12 11 11 11 10
2 2 6 5 3 2 5 5 4 5 6 7 11 12 10 12 25 17 13 12 10 14 12 13 10 10 10 9 10 10 9 11 13 12 11 10 9 8 7 5 5 4 5 6 7 6 6 6 6 6 7 6 6 5 6 5 5 5 5 6 7 9 8 8 9 9 9 7 8 11 11 9 6 5 7 7 8 7 9 9 9 10 11 10 10 10 10
1 7 2 3 4 1 0 3 5 2 3 9 14 5 5 5 4 2 3 15 16 15 14 15 14 12 10 7 5 7 11 12 12 12 11 11 9 8 7 5 5 5 6 7 6 6 5 5 4 5 5 6 5 5 6 6 5 5 5 6 7 7 8 8 8 9 10 10 9 10 11 11 10 9 7 8 7 5 5 7 9 9 9 10 9 10 10
1 2 3 6 4 2 1 5 7 10 13 18 18 11 9 5 11 18 19 17 17 14 12 13 11 9 8 7 10 10 10 10 11 12 10 9 9 9 7 6 6 6 6 5 6 6 5 5 5 6 7 6 5 6 5 5 5 6 6 7 6 6 8 9 9 8 9 9 9 9 10 11 11 11 10 9 9 7 6 7 9 9 9 9 10 10 10
3 4 2 4 2 2 2 3 5 7 10 10 18 14 9 6 10 17 16 14 14 15 14 12 10 11 10 9 7 8 9 11 11 9 10 10 9 8 7 6 5 6 6 6 5 5 4 6 6 5 5 5 6 5 4 4 5 6 6 6 6 6 7 7 7 6 7 7 7 7 9 10 11 11 11 11 11 9 7 6 7 7 8 7 9 10 10
5 2 4 2 1 0 2 3 4 3 3 3 2 8 4 7 6 13 16 13 12 14 13 13 12 11 11 9 6 5 9 8 8 10 10 11 10 7 6 6 5 4 4 5 5 5 6 6 6 5 5 5 5 6 6 5 5 4 5 5 6 6 6 5 5 5 4 5 6 6 8 10 11 11 10 11 10 9 9 7 7 9 9 10 9 9 10
5 7 4 2 2 6 8 6 2 2 3 11 5 8 4 6 7 10 15 16 14 15 15 15 14 13 14 10 4 3 10 12 12 11 11 9 8 7 5 4 5 5 5 5 5 6 6 6 6 5 5 6 6 6 5 5 5 5 6 5 6 6 4 5 5 5 5 5 5 6 7 10 10 9 9 9 10 9 10 10 9 9 8 9 9 9 9
4 5 5 2 2 2 3 9 2 3 7 9 4 8 1 5 12 10 14 15 15 16 18 16 15 13 12 9 6 5 9 11 10 11 10 9 7 5 5 5 5 5 5 6 6 7 7 6 5 5 6 6 6 5 5 5 5 4 5 5 5 5 5 4 4 4 5 6 6 6 8 7 7 8 8 8 7 7 8 8 9 7 7 7 8 8 8
3 6 3 3 1 2 4 7 4 6 7 3 4 2 6 11 13 13 15 17 16 15 14 15 13 14 15 13 9 7 9 10 10 10 9 8 6 5 5 5 6 7 6 7 7 7 7 5 5 5 5 6 5 5 4 5 6 5 3 3 4 4 6 5 4 4 4 5 6 6 6 7 6 6 4 4 6 6 6 6 6 6 5 6 7 8 7
4 6 1 1 0 2 4 5 5 6 3 4 5 7 4 14 14 14 14 15 15 15 14 11 10 1 3 9 10 10 11 12 10 10 8 7 7 7 5 5 5 6 5 7 7 7 7 6 5 5 6 6 5 4 4 5 5 5 5 3 4 4 5 5 4 3 4 6 7 5 5 7 5 5 4 4 4 5 5 6 6 6 6 6 7 8 8
4 3 5 1 0 2 0 4 4 4 6 2 7 2 6 16 16 13 13 14 13 13 13 8 4 9 11 10 10 11 9 9 10 9 7 6 6 4 5 7 7 6 7 7 7 7 7 7 5 5 5 6 5 4 4 5 4 5 5 3 4 4 4 5 4 3 4 5 6 6 5 6 7 6 5 5 4 4 6 6 8 8 7 7 6 7 8
3 2 4 2 3 3 3 4 3 1 3 2 3 9 10 12 15 15 12 11 11 12 10 7 11 15 13 13 12 9 8 10 9 8 10 9 7 6 5 6 6 8 7 7 6 5 5 6 5 4 5 5 4 4 6 5 4 5 5 5 4 5 4 4 4 3 4 6 5 4 5 5 6 6 5 6 6 5 5 6 8 9 9 8 7 7 8
5 3 3 2 3 7 5 4 4 1 2 7 9 13 12 10 12 13 11 11 11 9 8 12 14 15 14 11 9 9 9 9 7 8 9 9 7 5 4 6 7 8 7 6 6 5 5 5 6 4 4 4 3 4 4 3 4 4 6 6 5 5 4 5 5 4 4 5 5 5 5 5 5 6 6 6 6 7 6 7 7 9 9 8 8 8 9
1 3 2 0 4 7 5 8 6 7 10 8 8 10 13 15 11 10 10 13 11 10 13 14 15 13 11 12 11 11 9 10 10 10 9 9 9 6 4 7 8 7 7 7 6 6 5 6 5 5 3 4 4 5 1 2 3 4 5 6 5 5 4 3 4 4 5 4 4 5 4 4 4 5 5 5 7 6 6 7 7 8 8 8 9 8 8
8 8 5 7 7 8 8 7 10 12 10 8 9 12 12 8 11 11 11 12 13 13 14 15 12 13 13 12 11 9 8 10 8 8 9 7 5 5 7 9 9 8 7 6 6 6 4 5 5 5 3 4 5 3 3 4 4 5 4 6 5 5 5 4 3 4 5 4 4 5 5 4 4 4 6 6 6 6 6 6 6 8 8 8 8 8 8
6 3 2 9 10 7 8 9 8 9 9 10 9 8 8 11 11 12 12 13 14 13 13 14 14 13 13 13 11 9 11 10 8 7 6 7 8 9 10 10 9 8 6 7 6 6 6 5 4 4 5 4 5 5 5 5 6 6 5 4 5 5 5 5 4 4 6 4 4 4 4 4 5 4 6 6 6 6 6 6 6 7 8 8 8 8 8
4 6 5 9 10 10 8 9 9 9 11 10 7 8 9 10 11 13 14 13 12 11 11 11 14 14 11 11 11 12 11 9 6 6 6 7 8 7 8 8 9 7 7 7 7 6 6 4 4 4 3 5 6 5 5 4 4 6 7 6 5 4 4 5 5 4 4 4 4 3 3 5 6 6 6 6 6 6 5 6 6 7 7 7 7 7 8
7 9 8 11 11 10 8 7 5 6 8 11 13 13 13 13 15 15 13 11 12 11 13 13 13 13 10 9 12 12 10 7 6 7 8 7 7 9 9 7 8 7 7 7 6 6 5 4 3 4 5 4 4 5 4 4 5 6 5 5 5 5 5 6 7 4 4 4 3 3 4 4 4 3 3 5 6 4 1 2 4 5 6 5 5 5 5
7 7 10 12 10 7 7 7 9 10 11 12 13 12 13 13 13 13 13 10 8 11 12 13 12 11 11 12 11 10 7 7 9 9 8 8 10 9 8 8 8 7 7 7 6 6 5 4 4 4 5 5 5 4 4 3 4 5 5 4 5 5 5 6 7 6 5 6 4 3 3 3 5 4 5 4 4 6 2 1 2 2 3 3 3 4 5
8 5 9 4 6 9 7 11 12 13 11 12 12 12 12 12 11 11 12 12 13 13 11 8 8 11 12 12 9 8 9 10 9 8 9 9 9 9 8 8 7 6 6 5 6 6 5 5 4 4 4 3 5 4 4 4 5 4 3 5 5 6 6 5 8 6 3 6 4 5 3 3 4 4 2 5 8 5 6 4 2 1 3 4 6 7 4
6 11 6 7 7 9 10 12 12 12 10 12 12 12 11 11 10 9 10 12 15 12 10 10 10 10 9 8 10 11 11 9 9 8 8 9 8 8 7 7 6 6 6 6 6 6 5 5 4 4 5 4 4 4 4 5 5 5 4 4 6 5 5 5 6 7 3 4 4 4 4 5 4 5 4 4 1 3 2 2 3 4 4 5 7 8 7
11 7 7 10 11 11 10 11 10 10 10 12 12 12 11 11 9 8 11 10 8 11 12 12 9 7 8 9 12 12 11 10 8 9 10 9 9 8 6 6 6 6 6 5 5 6 6 5 5 5 5 5 4 4 5 5 4 5 5 4 5 4 4 6 6 7 6 2 4 3 4 5 3 3 4 5 5 1 3 4 2 4 7 6 6 6 7
13 11 13 12 11 10 9 10 8 9 12 12 12 10 11 10 10 9 8 7 10 13 12 9 8 8 11 12 11 10 9 9 10 10 8 8 7 6 6 6 6 6 6 6 5 5 5 5 5 5 4 3 3 3 4 5 4 5 4 4 4 3 4 4 5 5 6 4 3 3 5 4 2 4 3 4 6 4 3 4 3 1 5 6 6 5 8
11 15 17 15 11 9 8 8 9 11 12 11 10 10 10 12 13 10 8 7 9 8 7 9 10 11 10 9 9 8 10 9 9 9 8 8 7 7 7 6 7 7 6 5 5 5 6 5 4 4 4 2 3 4 5 4 3 4 4 4 2 4 7 5 4 4 4 3 4 5 7 5 3 4 5 5 5 5 4 4 5 5 1 2 5 5 6
10 10 13 15 14 12 9 7 10 13 12 10 10 10 11 11 10 10 8 9 8 7 9 10 11 10 10 9 10 10 10 9 9 7 8 7 6 6 7 9 8 7 6 5 5 4 5 5 5 4 3 2 5 4 4 4 2 2 2 4 4 4 3 3 3 3 4 3 2 5 5 4 4 4 4 5 5 4 3 3 4 5 3 2 2 6 8
6 5 4 8 11 10 11 10 11 11 11 10 8 7 9 9 8 9 12 10 10 10 9 8 8 10 11 10 10 10 8 7 8 7 7 7 6 7 6 6 7 8 7 6 5 4 6 6 5 4 3 4 5 5 4 4 3 3 1 5 4 3 1 2 3 3 3 3 1 3 5 5 5 5 4 3 4 3 3 3 3 4 3 2 4 6 6
6 6 7 8 11 13 14 11 11 11 11 11 10 9 9 6 9 10 11 11 10 10 8 9 10 10 10 9 9 9 7 7 8 7 7 7 7 6 5 5 5 5 5 5 5 6 6 6 5 5 3 3 5 4 3 4 4 5 2 6 4 2 1 1 2 4 3 3 1 5 4 3 3 3 3 3 3 3 2 2 3 4 3 2 4 3 5
8 8 9 10 12 12 12 11 10 11 11 11 10 10 8 7 10 11 11 10 8 8 9 10 10 11 9 8 8 6 6 7 8 8 7 7 6 5 5 5 6 6 5 5 5 5 7 6 5 5 4 4 4 4 3 2 3 4 2 3 3 2 5 4 2 3 1 1 1 3 3 2 4 4 3 2 3 3 4 3 3 3 3 2 3 2 3
11 12 12 12 12 12 11 10 10 10 10 10 11 10 10 10 13 14 11 9 8 9 10 11 11 10 8 8 6 7 9 8 8 7 7 7 6 5 5 5 5 6 5 5 5 5 5 5 5 4 4 5 4 4 2 1 3 3 1 4 3 3 4 8 2 4 4 1 0 0 1 1 2 2 3 2 1 1 4 4 2 1 2 3 1 0 2
13 13 12 11 11 12 11 10 10 10 10 10 9 8 6 7 11 12 10 8 9 9 10 10 9 8 8 7 6 9 9 8 8 7 7 6 5 3 4 5 6 7 6 5 5 4 5 6 5 4 4 5 5 4 1 2 4 3 2 3 1 2 2 5 1 2 2 1 3 1 1 0 1 2 3 1 0 1 3 3 1 1 1 2 2 1 1
11 9 9 9 10 13 14 12 9 9 9 8 6 6 7 10 11 10 9 11 10 9 8 9 9 9 9 6 7 8 8 8 7 6 6 6 5 2 1 3 4 6 6 5 5 5 5 6 4 2 4 4 4 4 3 2 4 4 3 3 4 4 4 5 3 2 0 2 0 2 4 4 3 1 3 1 1 3 3 2 1 2 1 1 1 1 1
7 7 8 8 8 8 9 9 10 9 10 9 7 6 7 8 9 10 11 11 10 7 8 7 7 8 7 6 9 8 9 9 8 8 7 7 6 2 0 1 3 5 5 5 5 4 5 5 5 6 5 4 5 4 3 3 3 3 3 3 3 4 5 5 2 2 1 1 1 4 3 5 5 1 4 4 3 2 2 1 3 1 2 3 1 1 1
10 9 9 9 10 10 9 8 8 8 8 6 6 8 10 10 10 11 10 9 6 8 10 7 6 7 9 9 8 8 9 9 9 8 7 7 7 3 1 0 1 4 5 4 5 4 5 5 7 7 5 7 6 4 3 3 2 3 1 1 2 3 6 4 2 1 2 1 3 1 2 3 4 1 1 2 2 3 3 3 2 1 3 4 3 3 2
9 9 8 8 9 11 11 10 8 8 6 7 8 10 11 10 8 9 9 7 6 9 8 8 8 8 8 8 9 8 9 9 9 8 7 5 4 4 3 1 2 4 4 6 6 4 6 6 9 10 6 6 6 5 3 5 3 1 1 1 1 3 4 2 3 3 3 2 1 0 3 4 4 1 0 4 3 2 3 3 2 1 3 4 3 3 1
11 10 9 8 8 9 10 8 7 7 7 7 8 10 11 9 8 9 9 6 6 8 9 10 10 9 8 7 8 9 8 6 7 7 6 5 5 5 4 4 4 4 6 7 4 7 7 9 11 6 4 6 6 5 5 6 5 3 2 0 1 2 4 2 1 1 2 2 1 0 4 4 2 5 4 2 2 1 2 2 2 3 0 3 3 3 3
11 9 8 7 8 7 5 6 8 8 10 10 10 10 9 8 9 10 7 7 6 8 11 8 8 10 10 10 8 7 7 7 7 7 6 6 5 6 6 7 7 7 7 5 6 8 7 8 6 6 6 5 6 5 5 6 4 4 2 2 1 2 5 3 2 1 2 2 0 2 4 2 3 4 4 1 1 1 1 3 3 4 4 3 5 3 3
12 10 11 11 8 6 8 8 8 8 8 9 10 9 6 8 10 8 8 9 7 9 11 10 11 9 8 8 8 7 7 8 8 8 7 6 5 5 4 5 6 5 5 7 8 8 10 11 7 5 6 5 6 6 5 6 6 5 3 1 1 3 1 1 1 0 3 3 0 3 4 3 3 4 5 2 3 4 4 3 4 3 3 3 3 3 3
9 9 9 8 8 10 8 8 9 8 6 8 8 8 7 9 9 7 7 9 8 9 13 12 11 10 10 10 10 9 8 7 7 8 7 5 5 5 6 7 6 5 4 6 6 8 11 9 6 5 3 5 6 7 7 7 7 4 5 3 3 2 0 1 1 3 3 1 1 5 3 3 4 4 3 2 4 4 4 4 5 5 3 3 2 1 2
8 9 8 8 9 8 8 7 7 6 6 7 9 10 9 10 10 9 6 6 6 8 12 11 13 12 10 10 9 8 7 7 7 7 8 9 9 8 7 8 6 5 7 9 9 10 9 7 5 6 6 7 8 10 9 6 5 4 2 0 2 2 2 2 3 3 4 3 3 7 3 3 4 4 2 3 3 3 3 3 4 4 3 2 4 1 1
9 8 7 7 7 8 9 7 8 7 7 9 9 8 8 10 8 8 8 6 7 8 8 10 11 12 11 10 10 10 9 8 7 7 7 7 8 8 10 8 5 7 9 10 9 8 8 6 7 6 8 9 9 12 11 7 5 3 1 0 2 4 4 4 4 1 0 2 0 1 4 2 4 4 4 4 3 2 3 3 2 1 1 1 2 2 3
9 9 7 7 6 7 7 7 9 7 6 7 9 10 8 10 10 9 7 7 9 8 10 12 12 10 10 10 10 9 8 8 8 7 7 7 5 5 5 6 7 7 10 9 8 8 8 7 6 9 14 14 12 12 8 6 5 3 3 2 3 6 4 2 2 2 3 1 1 2 4 4 6 5 6 5 4 3 3 4 2 0 2 2 2 2 2
10 10 8 8 7 8 7 9 10 8 7 6 7 9 7 7 6 6 9 7 7 7 7 9 10 10 9 9 10 10 10 10 10 9 8 7 7 8 8 8 7 6 9 12 10 9 9 9 9 13 14 15 15 12 8 7 6 4 3 2 3 3 4 4 5 4 4 4 6 5 7 6 8 7 7 7 7 4 4 6 4 3 5 4 4 3 4
10 10 8 10 9 9 7 9 7 6 5 5 6 8 8 6 6 5 6 7 8 8 7 8 6 6 8 8 8 8 9 11 10 11 11 11 11 11 9 10 9 10 16 16 10 10 8 10 13 14 15 15 13 9 6 6 5 4 3 3 3 4 5 6 4 3 5 4 4 3 3 3 4 4 5 7 6 5 6 6 3 3 5 5 4 3 1
10 9 9 9 8 8 7 8 7 8 8 7 8 8 7 7 6 7 6 5 7 9 10 9 10 8 7 8 8 7 5 7 7 8 9 9 10 10 10 15 15 14 10 9 8 8 7 7 9 13 12 12 11 8 7 6 5 4 5 4 3 4 6 7 6 3 2 4 4 3 3 2 1 1 0 1 3 2 4 4 4 4 5 4 3 2 1
11 10 9 9 10 10 9 8 9 10 10 10 8 8 8 8 6 7 7 5 8 9 8 8 8 6 6 7 8 7 7 6 4 6 7 8 8 7 8 9 11 12 13 9 9 8 11 12 12 14 15 14 10 8 8 7 6 6 6 4 3 4 5 5 2 6 6 5 3 3 2 1 1 3 2 2 3 3 6 6 6 5 4 4 3 1 0
10 9 8 8 9 11 11 8 9 9 9 8 8 8 8 7 6 8 7 7 7 8 7 6 8 7 5 6 7 7 7 6 8 7 7 8 8 8 9 11 15 15 11 8 7 6 10 13 13 14 14 11 8 7 7 7 7 6 5 4 5 4 5 3 5 6 6 6 4 3 1 1 1 0 1 1 1 2 3 4 5 5 4 4 3 2 2
9 7 8 9 9 10 10 8 8 8 8 6 7 7 9 9 8 9 8 8 9 8 8 8 8 7 8 6 6 7 7 6 6 4 7 7 6 6 7 7 7 8 8 7 5 6 6 10 10 10 9 6 6 5 6 5 6 6 6 5 4 3 4 6 7 6 3 1 0 1 1 1 1 3 2 0 1 2 3 5 7 6 7 5 2 3 4
9 8 8 8 8 8 7 7 7 7 7 7 7 9 9 9 9 9 8 8 7 8 8 7 9 8 7 7 6 7 7 6 7 7 8 9 9 8 9 8 9 8 8 7 7 7 6 6 6 7 7 6 7 6 5 6 6 6 6 5 4 3 5 5 3 3 2 3 4 3 3 2 2 1 1 1 1 1 2 4 4 4 4 3 5 6 5
9 7 7 7 7 6 7 7 6 6 7 8 7 8 9 9 8 8 8 10 9 8 8 7 7 7 7 7 8 8 7 7 7 5 7 8 8 7 8 9 8 7 8 8 7 7 7 7 7 9 9 8 7 7 7 8 8 7 6 5 4 3 5 5 5 4 6 6 4 4 3 2 1 0 0 2 3 2 2 2 3 3 3 4 5 4 4
Wind_Direction
100 77 37 15 9 310 205 196 205 219 191 202 204 146 163 147 161 173 171 159 133 150 146 143 141 143 143 144 138 132 130 126 124 125 125 120 112 105 102 104 102 105 105 107 83 70 82 92 86 74 60 47 41 34 32 38 41 28 22 27 30 38 41 42 38 37 38 44 44 43 43 45 38 33 28 24 21 19 19 20 18 21 23 22 20 19 18
133 83 60 34 29 42 37 24 14 2 5 115 107 40 16 140 133 135 148 135 120 133 137 133 134 134 132 127 125 123 129 133 134 131 119 113 109 103 98 95 99 113 99 72 64 56 28 72 80 73 64 50 43 39 32 37 44 31 32 36 40 37 37 32 29 32 36 38 37 37 40 39 37 33 29 26 25 25 23 21 20 18 20 21 22 22 15
73 83 70 65 65 78 62 31 28 34 65 66 82 100 92 84 87 106 109 113 110 95 119 122 120 118 120 124 128 136 142 143 131 119 115 111 110 108 104 100 108 77 63 44 52 63 71 67 69 71 66 54 41 39 35 43 51 41 42 45 44 40 37 28 25 32 44 43 34 34 36 39 36 32 26 23 24 29 28 24 22 23 23 20 21 21 17
357 70 80 89 93 87 68 34 18 15 21 70 358 105 160 112 129 124 118 120 138 146 133 119 117 125 132 134 136 138 142 126 117 117 117 115 114 114 112 115 94 66 60 50 58 77 74 65 65 68 64 53 47 46 38 46 54 52 49 52 52 46 38 30 25 25 29 39 38 32 29 32 34 31 25 23 25 29 30 28 26 27 25 20 20 20 17
14 25 98 90 62 27 24 5 358 348 51 82 70 51 47 125 133 128 151 182 149 145 142 134 136 137 137 132 139 129 109 120 122 120 117 117 116 109 110 103 89 80 70 71 68 65 61 63 67 69 73 62 54 54 51 44 52 49 49 52 59 56 44 34 32 29 26 28 36 37 29 21 16 20 22 22 23 25 33 32 29 31 24 16 18 18 16
310 327 10 49 49 189 217 277 285 222 132 104 85 49 48 45 35 154 139 137 137 140 146 144 150 147 143 133 108 112 124 127 117 111 111 113 112 108 103 99 91 76 74 74 71 70 70 69 72 77 74 74 58 61 63 52 53 44 46 48 61 61 52 42 35 32 27 29 36 39 31 23 18 14 9 13 11 12 25 31 33 32 21 17 16 17 15
151 356 2 75 206 204 276 325 47 83 104 96 92 84 64 64 103 106 110 124 134 142 139 137 135 126 110 105 114 114 108 106 109 116 119 111 106 108 106 97 86 83 85 81 78 71 61 60 61 67 59 57 53 51 56 60 55 51 43 50 56 60 57 51 45 38 37 40 45 44 36 28 23 19 14 7 5 2 18 30 28 26 17 16 16 15 13
54 47 10 177 203 271 59 61 78 96 95 107 89 72 59 60 105 117 116 128 132 135 137 133 126 118 112 95 79 98 105 114 124 128 115 116 113 107 110 104 96 95 98 101 98 98 86 64 56 65 75 68 64 49 43 55 61 65 60 57 61 65 61 59 57 49 47 46 49 51 42 34 30 24 18 11 7 1 11 29 32 23 19 18 18 15 12
121 115 50 83 27 165 165 144 173 166 141 257 238 112 73 117 125 119 127 133 139 136 133 126 122 117 105 96 83 89 117 110 101 106 110 110 112 113 110 112 110 113 115 107 102 95 89 78 64 59 68 72 67 53 42 33 47 57 64 56 60 69 72 64 62 56 50 53 55 53 46 40 35 28 21 15 14 10 14 17 25 23 19 17 13 11 10
118 125 117 99 180 196 211 230 224 66 103 113 129 97 104 132 135 140 136 144 144 134 129 129 128 124 116 128 135 103 112 107 105 99 100 101 101 108 116 115 122 118 97 87 88 95 94 89 80 65 66 73 68 60 43 28 40 49 62 58 63 74 78 65 54 48 47 59 64 58 52 46 40 33 26 22 21 16 22 16 16 20 23 17 11 8 7
89 93 121 180 191 256 176 214 207 143 124 123 130 72 117 167 146 155 141 140 145 143 141 140 139 139 144 154 156 151 119 115 110 105 102 111 128 133 133 127 117 116 120 110 95 80 76 77 81 84 73 73 74 63 45 30 36 52 80 78 79 83 90 86 66 58 56 55 71 74 59 50 44 38 32 30 23 21 25 22 17 12 21 16 7 5 8
151 144 112 153 210 242 230 179 164 157 148 122 59 135 230 169 157 152 148 148 150 150 147 146 152 157 153 161 164 148 124 112 111 121 137 151 153 146 137 137 127 115 106 89 81 85 81 75 71 72 77 77 76 68 43 39 40 39 39 90 92 86 87 92 81 63 55 56 63 80 73 56 42 37 32 33 30 30 23 23 18 10 11 8 5 0 359
85 96 125 77 296 283 145 160 152 162 135 72 113 196 225 153 149 149 152 149 151 151 150 156 152 106 76 124 133 133 130 130 138 143 155 155 145 141 144 145 115 97 97 106 111 108 99 83 68 65 72 77 73 62 53 49 37 27 26 43 68 73 96 98 90 70 55 69 71 75 84 68 50 34 28 33 26 33 28 17 15 8 7 1 3 359 356
116 134 101 160 152 250 102 188 177 159 101 140 208 248 131 139 140 144 151 152 153 152 149 142 117 120 127 129 129 138 137 131 138 146 137 116 104 112 127 120 107 104 98 95 93 97 102 94 81 69 78 82 84 74 60 52 47 36 30 23 59 63 72 102 106 74 60 62 73 87 90 73 56 35 16 21 26 29 30 26 20 11 1 360 2 3 1
51 48 89 93 149 231 195 134 45 41 152 230 145 114 108 124 133 143 150 147 146 145 149 129 132 134 138 140 144 139 127 126 131 125 114 109 114 120 119 117 112 105 95 91 92 100 104 104 93 81 81 83 94 96 84 73 70 47 35 37 27 51 54 67 102 99 69 71 71 74 81 82 69 47 26 23 16 21 27 28 24 18 8 3 0 4 7
131 152 159 188 231 160 187 153 175 163 136 149 137 125 125 132 140 147 145 143 149 149 134 136 139 138 140 142 136 127 118 125 122 119 125 131 140 165 165 139 123 108 107 108 103 92 91 99 102 92 90 82 71 80 99 110 89 69 59 46 37 38 52 59 61 79 74 72 72 72 81 84 77 63 40 30 25 21 24 30 27 21 14 7 5 8 8
161 168 182 231 57 79 81 102 113 103 106 118 120 122 133 142 149 142 142 149 151 141 139 136 139 138 146 143 141 137 135 131 135 139 143 152 164 173 157 125 115 111 116 112 105 100 98 99 108 103 100 90 58 68 82 112 100 110 82 66 41 31 25 42 59 70 83 78 73 67 71 88 85 68 52 43 37 18 27 34 33 29 17 12 12 7 6
92 61 80 104 78 79 71 76 109 114 107 101 116 125 131 138 138 147 149 149 138 139 139 137 142 141 139 136 140 143 135 135 143 147 149 154 161 143 117 106 105 106 103 99 98 94 80 94 106 111 99 100 79 60 34 22 48 89 90 77 50 28 28 12 12 58 71 75 66 67 62 60 85 88 77 59 54 29 34 35 37 33 20 19 15 12 10
88 95 34 88 101 100 94 96 89 102 112 121 128 130 124 134 140 136 133 134 137 139 143 141 139 139 147 146 150 144 136 142 148 145 147 139 128 121 119 125 123 121 118 105 100 93 80 56 74 110 125 89 92 68 55 50 44 46 51 71 83 55 22 15 2 37 79 97 82 64 64 53 45 65 76 75 63 51 41 41 41 36 30 22 17 13 14
86 143 131 102 97 99 109 109 111 113 121 125 117 114 115 113 110 116 127 128 130 135 134 139 140 146 155 154 140 137 141 150 147 138 124 116 119 119 123 121 112 106 104 108 104 101 95 78 59 55 79 108 97 89 66 55 59 66 63 57 41 9 16 24 14 15 68 98 112 87 59 71 59 41 68 82 78 69 61 51 53 47 36 26 10 1 6
89 86 99 113 108 105 108 107 102 109 113 111 111 111 113 112 113 121 127 133 139 140 141 144 149 151 154 136 133 137 149 146 135 124 125 110 98 97 93 93 100 111 114 111 115 112 116 118 89 59 64 92 112 119 116 97 84 72 58 51 50 33 6 5 6 348 38 79 120 126 92 69 64 83 87 110 106 86 67 74 83 77 60 30 359 341 342
155 164 160 144 137 148 137 122 118 111 110 109 111 113 114 120 124 129 131 133 132 132 144 150 153 145 136 134 140 149 147 136 126 126 114 108 107 101 97 93 93 96 105 114 116 117 119 103 81 70 73 78 68 74 81 75 76 90 84 61 48 20 15 12 1 344 29 39 55 100 137 139 106 65 36 66 137 133 150 188 66 54 96 46 337 328 342
186 180 153 106 102 110 119 120 116 116 113 115 117 119 122 123 129 132 135 134 132 142 149 153 143 137 140 148 149 136 129 127 129 124 120 114 108 108 108 104 101 105 108 111 110 111 113 96 83 64 41 61 82 62 57 49 78 94 90 73 52 29 17 9 0 331 43 69 45 22 43 122 142 140 116 29 34 93 136 174 189 292 9 7 353 356 340
121 145 130 118 119 126 130 121 120 120 123 119 119 121 125 131 137 142 141 144 147 149 143 134 140 148 150 147 132 128 126 126 124 123 118 116 117 120 118 124 129 119 108 98 101 106 106 101 87 65 54 45 79 79 65 53 47 61 79 91 70 32 14 10 6 9 6 68 46 36 21 28 72 119 137 133 61 331 333 300 303 319 311 315 309 331 353
146 144 118 109 109 110 114 118 120 124 125 124 128 135 139 144 148 147 149 149 149 136 136 147 159 159 140 128 125 129 132 134 132 129 126 122 125 125 133 124 123 122 122 116 108 103 99 101 94 80 60 40 37 57 63 52 54 51 57 77 74 47 21 18 9 12 358 19 70 43 22 35 34 67 70 84 113 191 283 272 271 314 323 317 313 312 20
125 116 109 107 108 113 116 113 115 121 122 127 132 141 145 145 145 142 146 141 133 142 151 154 146 132 125 126 126 131 128 132 132 124 119 123 123 120 114 119 119 114 113 115 116 115 119 120 114 104 102 85 42 47 80 51 45 65 79 100 102 73 40 20 14 12 5 326 9 10 18 44 50 65 69 75 89 110 61 11 10 343 275 296 318 326 26
110 118 115 109 112 122 140 139 139 131 129 133 142 145 146 143 148 150 150 140 138 143 136 131 124 124 122 125 125 126 128 126 115 116 124 128 133 139 134 124 116 111 109 109 120 130 125 110 96 92 75 66 58 67 84 67 51 53 73 118 101 44 21 34 15 12 356 337 15 29 35 26 25 48 51 51 81 93 76 63 45 65 76 313 304 16 36
109 123 134 139 147 152 147 132 127 127 135 136 143 146 147 149 145 150 144 136 124 115 115 117 121 117 113 116 117 119 114 116 123 127 126 135 137 128 126 131 132 135 136 138 150 151 124 110 100 83 49 50 70 61 55 47 56 96 81 102 88 70 13 360 359 354 348 311 41 73 59 40 55 61 58 56 64 92 79 58 69 74 62 19 5 353 6
105 98 97 119 126 129 127 124 125 129 136 146 149 148 152 151 150 134 126 126 122 118 115 111 107 113 119 122 119 125 129 127 129 134 136 131 124 127 134 134 140 147 154 169 172 152 131 124 120 104 87 86 80 65 51 30 23 355 288 101 103 77 359 311 327 334 357 309 86 69 71 66 65 51 45 33 57 85 81 71 60 77 102 41 16 1 353
118 117 118 118 121 129 132 136 139 141 146 155 155 160 164 164 140 130 125 124 124 126 125 115 112 116 120 124 132 144 144 142 137 131 127 126 132 138 143 139 119 112 116 126 138 136 125 128 128 130 128 112 100 89 65 42 12 359 84 129 130 155 196 260 313 323 349 330 356 77 80 91 96 84 52 30 60 113 121 82 75 94 90 46 46 33 9
125 126 126 124 129 133 136 141 143 148 154 162 162 163 173 150 129 126 129 128 128 126 128 124 124 126 129 143 156 150 140 129 125 126 125 131 135 150 148 140 135 158 161 163 150 133 131 129 136 147 155 126 121 117 89 50 14 17 82 125 148 185 243 261 258 286 316 282 314 105 120 120 116 98 67 42 40 35 54 86 64 69 125 113 68 29 340
120 125 130 136 141 143 141 147 151 156 161 164 164 170 167 146 138 136 138 141 139 134 128 130 132 141 154 165 154 141 131 127 129 128 133 140 156 169 170 169 175 168 161 151 127 128 134 136 132 162 161 139 122 110 120 105 57 32 59 136 190 247 272 281 313 317 342 337 273 163 159 163 123 126 75 54 44 76 60 86 74 132 126 134 149 324 296
132 136 144 149 145 143 147 155 157 161 162 165 171 166 152 133 136 141 145 140 135 130 131 136 144 149 165 162 140 137 132 136 133 134 137 149 147 150 153 158 132 140 143 142 147 141 115 137 164 190 159 144 141 140 162 105 93 60 345 47 105 245 299 271 212 313 345 41 50 338 280 354 122 139 107 154 89 83 61 93 137 123 112 160 187 236 260
145 151 151 155 151 153 156 159 164 161 162 170 171 156 140 135 139 139 129 131 134 133 139 152 159 159 163 150 139 125 121 116 119 134 145 143 134 86 65 131 140 141 149 142 133 143 141 156 182 151 91 95 142 129 127 102 85 70 39 17 8 344 343 307 360 24 33 93 337 327 25 39 80 103 134 186 121 88 103 105 123 105 82 129 193 225 282
137 144 149 148 148 153 159 162 166 169 170 173 167 149 133 121 124 126 132 136 144 155 152 157 154 153 151 133 120 132 135 143 152 151 155 150 159 140 27 33 124 120 135 156 170 191 180 170 142 126 122 103 117 110 124 121 105 81 48 26 8 343 328 299 358 312 60 109 25 19 18 357 12 63 173 177 137 121 120 90 83 106 126 109 107 48 5
150 156 158 158 162 164 168 171 174 174 169 162 149 131 127 131 128 127 137 154 153 152 160 149 125 111 119 121 128 141 143 149 150 152 156 163 171 152 107 24 203 141 160 183 213 175 152 155 145 131 115 116 125 152 161 116 105 128 122 59 12 338 308 281 1 330 34 78 50 46 296 351 30 337 201 173 123 90 72 39 45 96 149 149 135 93 27
161 163 165 165 167 172 174 177 177 171 165 151 140 135 136 139 135 138 149 161 152 153 133 127 126 124 134 142 146 145 143 149 152 156 168 173 165 137 178 223 257 195 186 191 223 168 159 159 157 147 133 136 147 159 157 130 130 169 183 116 305 314 295 358 346 337 354 295 83 245 334 13 19 312 147 120 109 110 74 56 30 32 155 154 140 124 82
168 171 172 173 174 175 180 172 164 154 139 125 125 139 145 141 141 141 160 162 158 137 135 142 144 136 132 126 125 136 150 154 152 154 156 162 165 161 190 211 241 223 199 216 199 169 173 170 162 154 159 156 158 168 183 173 168 221 170 173 313 318 297 272 316 319 356 289 111 270 9 27 38 41 26 45 138 139 91 80 56 29 77 147 147 145 164
173 172 174 173 179 180 155 137 134 134 136 129 131 147 148 135 149 146 152 160 169 134 139 133 129 130 141 136 138 141 154 162 158 153 158 174 170 163 199 208 222 214 210 217 163 172 169 169 168 161 173 166 161 170 180 175 182 240 189 149 247 298 278 228 159 292 288 274 126 42 62 54 50 27 39 20 7 24 59 75 43 36 25 119 160 173 157
173 173 171 173 174 146 135 136 134 136 135 137 137 150 145 141 158 146 157 177 182 135 144 139 142 140 146 140 142 153 165 164 161 159 167 172 165 181 225 259 252 257 253 195 168 159 168 172 167 184 187 168 162 156 168 180 207 226 236 160 218 241 261 25 184 102 315 315 206 84 90 91 50 39 48 38 20 30 50 42 33 31 21 58 143 173 147
161 162 160 150 146 142 145 136 146 155 150 145 145 149 148 153 162 160 171 186 184 143 153 152 152 153 155 157 159 163 163 166 163 168 167 153 167 187 200 234 248 242 201 164 154 159 169 175 175 164 164 145 152 156 166 200 209 214 219 205 224 203 78 255 315 302 259 173 139 104 124 108 70 66 65 39 43 49 50 43 27 12 24 47 59 121 169
140 137 134 137 142 144 152 146 156 154 160 153 155 159 160 163 170 184 181 172 178 150 154 161 159 162 162 158 150 149 155 169 170 173 170 175 182 187 200 239 234 233 183 170 165 170 179 184 170 161 152 143 144 172 179 188 203 219 207 40 210 161 177 221 236 258 269 193 135 132 165 143 121 119 127 94 76 84 83 64 37 21 334 39 77 142 171
142 145 141 144 142 145 153 154 162 168 163 161 161 167 163 167 172 178 189 174 178 172 145 155 162 155 155 154 153 157 168 175 178 185 195 208 197 186 191 218 227 229 180 174 179 180 181 188 175 164 152 155 164 175 182 195 205 188 184 32 249 244 230 209 216 190 210 136 186 131 167 171 134 135 124 124 152 156 151 118 92 16 322 320 100 48 37
150 153 157 156 159 161 158 156 165 168 161 172 167 169 155 163 179 183 176 160 175 169 140 150 163 162 166 163 162 164 174 174 183 186 186 210 231 237 213 211 232 214 179 172 174 175 186 193 190 161 160 162 170 174 182 192 199 168 152 205 223 207 226 200 207 159 201 197 208 140 168 193 180 169 159 165 176 199 162 157 156 172 95 110 106 82 99
157 163 167 168 167 165 166 164 169 170 169 154 152 165 165 173 176 170 177 170 153 168 149 141 152 166 172 172 172 178 180 182 183 175 178 195 207 232 219 207 188 159 180 170 173 181 191 193 184 168 171 173 176 176 179 189 194 183 160 178 237 237 234 222 219 221 220 218 223 189 196 182 178 187 181 179 182 188 169 177 190 185 142 122 97 57 15
162 167 169 166 170 173 170 162 161 159 165 157 157 171 181 187 185 179 171 174 157 167 166 163 164 174 178 180 188 190 179 187 186 186 189 183 188 215 194 176 182 185 185 181 179 185 188 179 172 178 179 180 174 171 182 183 181 195 209 218 230 236 238 235 213 204 214 226 249 261 255 243 208 209 197 183 191 183 186 183 190 170 143 131 123 101 64
166 171 170 170 171 171 162 162 166 171 177 173 171 184 186 178 181 186 187 174 168 169 169 172 181 194 186 186 179 178 155 166 202 204 198 204 206 207 183 182 185 185 173 178 174 174 168 166 165 170 170 175 170 178 181 178 180 204 212 221 230 249 245 232 214 211 99 88 97 101 80 99 143 198 165 210 234 177 154 180 187 153 139 125 109 88 65
170 176 175 171 170 169 171 177 173 181 180 180 172 174 179 177 176 185 197 170 155 173 175 181 188 189 188 190 190 192 194 178 189 247 206 190 194 181 175 172 179 175 175 170 163 174 167 167 169 170 175 175 177 182 181 183 193 206 210 220 235 259 263 247 171 129 147 148 133 121 102 51 6 7 29 100 126 153 173 180 157 145 155 134 136 166 177
173 177 175 167 167 172 184 183 176 178 181 180 172 176 176 173 169 182 195 190 163 157 176 183 192 197 180 187 194 200 205 177 176 212 204 167 160 169 176 175 173 168 168 170 168 173 178 170 173 177 177 176 182 185 186 187 196 201 213 219 233 250 260 222 173 169 159 160 160 160 165 194 264 123 134 173 213 207 182 161 154 155 168 170 185 184 134
171 169 170 174 174 181 184 175 178 180 181 176 181 182 180 173 175 190 182 178 181 170 171 183 198 200 189 171 185 200 207 201 209 175 137 153 147 150 152 157 159 163 157 149 152 157 179 175 170 175 174 188 196 196 202 198 197 201 214 222 226 239 220 184 180 180 165 164 137 50 51 165 191 182 197 198 188 175 159 160 166 178 182 183 172 146 147
175 179 181 178 179 181 179 174 177 177 188 195 191 182 179 183 189 183 173 172 173 174 185 177 182 191 187 194 195 186 178 174 182 166 144 158 156 158 157 160 159 164 158 155 159 167 170 177 183 180 185 194 198 211 213 208 206 211 212 216 222 220 222 219 197 173 163 141 139 149 161 183 196 227 270 292 188 179 156 158 170 179 195 178 149 155 157
173 171 167 169 171 175 179 184 181 183 194 197 193 167 174 180 176 181 182 174 173 180 179 175 199 210 190 184 185 191 190 177 173 162 139 143 147 147 154 153 159 170 173 169 172 174 178 189 185 185 187 194 206 214 220 217 212 214 223 223 211 204 192 186 179 175 170 167 156 147 150 157 153 158 211 177 167 157 161 188 199 205 181 155 161 160 159